Location: Paddlesworth
(51.1000°N, 1.1333°E)
Time: 11:57:04
(UTC+00:00)

Cosmos 1933 Rocket - Pass Details

Date: 11 May 2021
Orbit: 607 x 630 km, 82.5° (Epoch: 19 June)

Event Time Altitude Azimuth Distance (km) Brightness Sun altitude
Rises 20:58:27 0° 351° (N) 2,881 8.1 -11.1°
Reaches altitude 10° 21:00:41 10° 353° (N) 1,971 7.0 -11.3°
Maximum altitude 21:05:02 71° 78° (ENE) 649 3.5 -11.8°
Enters shadow 21:08:26 16° 161° (SSE) 1,590 5.1 -12.1°
